CZ-3B DEB, 40838

Orbit data source: Space-Track

CZ-3B DEB, 40838 is space debris in HEO originally from a launch on Mon, 19 Dec 2011 UTC launched from the Xichang Space Center, China (XSC). Debris objects in space refer to the collection of defunct objects orbiting the Earth. Examples of debris include non-operational satellites, rocket bodies, and fragments generated from explosions, collisions, or faulty payload assembly.

Loading next visibility...
Identifier
40838, 2011-077T
Orbit
HEO
Country
Flag of CNCN / PRC
Related business
Manufacturer
CALT
Mission
Spacecraft
Bus & Motor
Unknown
Mass
Unknown
Launch date (UTC)
2011-12-19 (15 years ago)
Launch vehicle
Unknown
Launch site
Xichang Space Center, China (XSC)
Object type
Payload
Rocket body
Debris
Shape & HBR
Unknown shape, 0.2 m
Radar Cross Section
Medium (>0.1 m² and <1 m²)

Expand to show TLE details & history
Last TLE update: 1 month ago

TLE from 1 month ago
0 CZ-3B DEB
1 40838U 11077T   26133.36454437  .00001251  00000-0  23447-2 0  9991
2 40838  25.7957 235.9640 7485811 230.5464  35.8242  1.95935609 79565
Epoch: 2026-05-13T08:44Z
TLE epoch observation values (Epoch: 2026-05-13T08:44:56.633Z)
Latitude
0.00001°
Longitude
-126.32264°
Altitude
16,338.346 km
Speed
4.507 km/s
True Right ascension
15h 44m 09s
True Declination
0° 00' 00"
Sunlit
Object was in daylight at epoch
Visualization orbit readout
Latitude
Unknown
Longitude
Unknown
Altitude
Unknown
Speed
Unknown
Apparent Right ascension
Unknown
Apparent Declination
Unknown
Sunlit
N/A
Visualization observer readout
Local Sidereal Time
21:41:05
Azimuth
Unknown
Elevation
Unknown
Doppler factor
Unknown
Orbital elements
Apogee altitude
40,800.298 km
Perigee altitude
405.392 km
Semi-major axis
26,980.982 km
Eccentricity
0.74858
Inclination
25.7957°
RAAN
235.964°
Arg. of periapsis
230.5464°
True anomaly
129.60862°
Mean anomaly
35.8242°
Eccentric anomaly
77.73593°
Mean motion
0.48973 °/min
Orbital period
735.1 mins
BSTAR
0.0023447
Loading maneuver chart data...
Computing Atmospheric mass density...
Loading historical data...
Loading historical data...
Loading historical data...
Loading historical data...
Loading historical data...
Loading historical data...
Loading historical data...

Documentation

Showing up to 5 results
|